QPF
0.03 0.03 0.03 0.03 0.03 0.05 0.06 0.04 0.04 0.04 0.04 0.05 0.06 0.06 0.05 0.03 0.03 0.03 0.04 0.08 0.12 0.14 0.11 0.08 0.07 0.06 0.05 0.05 0.04 0.05 0.06 0.06 0.05 0.05 0.06 0.06 0.06 0.05 0.05 0.05 0.05 0.05 0.04
0.03 0.03 0.04 0.03 0.03 0.04 0.04 0.03 0.04 0.04 0.04 0.04 0.05 0.05 0.05 0.04 0.05 0.05 0.05 0.05 0.08 0.12 0.10 0.07 0.07 0.05 0.05 0.04 0.04 0.04 0.05 0.05 0.05 0.05 0.05 0.05 0.05 0.05 0.05 0.05 0.04 0.05 0.05
0.02 0.03 0.02 0.03 0.03 0.04 0.04 0.04 0.05 0.04 0.03 0.04 0.06 0.05 0.03 0.03 0.05 0.05 0.04 0.04 0.05 0.08 0.07 0.06 0.05 0.05 0.05 0.05 0.04 0.04 0.03 0.04 0.04 0.04 0.04 0.04 0.05 0.06 0.06 0.05 0.04 0.04 0.06
0.03 0.03 0.03 0.04 0.04 0.05 0.05 0.04 0.05 0.04 0.02 0.03 0.05 0.05 0.04 0.03 0.03 0.04 0.03 0.04 0.04 0.04 0.04 0.05 0.04 0.04 0.04 0.04 0.05 0.04 0.03 0.03 0.03 0.03 0.03 0.04 0.05 0.06 0.07 0.10 0.09 0.09 0.10
0.03 0.03 0.04 0.05 0.05 0.07 0.07 0.05 0.05 0.04 0.02 0.02 0.03 0.03 0.03 0.03 0.03 0.03 0.04 0.04 0.04 0.05 0.04 0.04 0.05 0.04 0.03 0.03 0.04 0.05 0.04 0.04 0.03 0.03 0.03 0.03 0.04 0.05 0.08 0.12 0.13 0.13 0.15
0.04 0.04 0.05 0.06 0.06 0.07 0.08 0.07 0.07 0.07 0.04 0.02 0.02 0.02 0.03 0.04 0.04 0.05 0.08 0.05 0.03 0.04 0.04 0.03 0.04 0.04 0.04 0.05 0.05 0.06 0.06 0.05 0.05 0.04 0.04 0.03 0.03 0.03 0.04 0.05 0.07 0.11 0.17
0.03 0.04 0.06 0.04 0.05 0.07 0.07 0.08 0.07 0.07 0.06 0.03 0.03 0.04 0.05 0.06 0.05 0.07 0.06 0.03 0.02 0.02 0.02 0.03 0.04 0.04 0.04 0.04 0.04 0.04 0.05 0.05 0.05 0.05 0.06 0.06 0.04 0.04 0.04 0.04 0.05 0.09 0.14
0.02 0.02 0.03 0.03 0.05 0.08 0.08 0.08 0.06 0.07 0.07 0.06 0.05 0.04 0.04 0.06 0.07 0.06 0.06 0.04 0.04 0.04 0.03 0.03 0.04 0.03 0.03 0.03 0.02 0.03 0.05 0.06 0.07 0.09 0.10 0.07 0.05 0.04 0.03 0.03 0.03 0.04 0.06
0.02 0.02 0.03 0.02 0.05 0.07 0.08 0.08 0.08 0.07 0.08 0.08 0.06 0.03 0.03 0.05 0.07 0.08 0.07 0.07 0.07 0.05 0.03 0.03 0.03 0.03 0.02 0.02 0.02 0.03 0.05 0.06 0.09 0.10 0.08 0.06 0.04 0.04 0.03 0.03 0.02 0.04 0.05
0.02 0.02 0.02 0.02 0.04 0.06 0.06 0.07 0.08 0.05 0.05 0.06 0.05 0.03 0.03 0.04 0.06 0.07 0.07 0.07 0.09 0.07 0.04 0.03 0.02 0.03 0.03 0.03 0.02 0.03 0.04 0.04 0.07 0.08 0.08 0.08 0.07 0.05 0.04 0.03 0.03 0.05 0.07
0.01 0.01 0.02 0.02 0.04 0.05 0.04 0.05 0.06 0.04 0.05 0.05 0.05 0.05 0.05 0.05 0.06 0.07 0.10 0.07 0.07 0.07 0.04 0.03 0.03 0.03 0.04 0.04 0.04 0.05 0.04 0.04 0.06 0.09 0.09 0.11 0.10 0.08 0.06 0.04 0.04 0.06 0.06
0.01 0.01 0.02 0.04 0.05 0.04 0.03 0.03 0.03 0.04 0.03 0.03 0.03 0.04 0.06 0.06 0.06 0.08 0.07 0.05 0.06 0.05 0.04 0.03 0.03 0.04 0.04 0.05 0.05 0.05 0.05 0.05 0.06 0.08 0.09 0.11 0.10 0.08 0.06 0.05 0.06 0.06 0.05
0.01 0.02 0.02 0.03 0.04 0.04 0.03 0.02 0.02 0.02 0.02 0.02 0.03 0.04 0.05 0.05 0.06 0.05 0.05 0.05 0.05 0.05 0.06 0.04 0.03 0.05 0.08 0.08 0.07 0.08 0.07 0.06 0.07 0.07 0.07 0.08 0.08 0.06 0.05 0.05 0.05 0.05 0.05
0.03 0.03 0.04 0.04 0.04 0.02 0.02 0.02 0.02 0.02 0.02 0.02 0.02 0.04 0.05 0.05 0.06 0.05 0.05 0.05 0.05 0.05 0.05 0.05 0.05 0.05 0.08 0.08 0.07 0.07 0.05 0.04 0.04 0.04 0.05 0.05 0.05 0.04 0.03 0.03 0.03 0.04 0.04
0.03 0.05 0.06 0.06 0.05 0.02 0.02 0.01 0.02 0.03 0.03 0.04 0.04 0.04 0.04 0.04 0.03 0.04 0.05 0.06 0.06 0.06 0.05 0.04 0.05 0.08 0.08 0.07 0.06 0.04 0.03 0.03 0.03 0.03 0.04 0.04 0.03 0.03 0.02 0.02 0.03 0.04 0.04
0.04 0.04 0.05 0.05 0.04 0.03 0.02 0.02 0.02 0.04 0.05 0.05 0.06 0.04 0.02 0.02 0.02 0.03 0.04 0.04 0.04 0.05 0.05 0.04 0.06 0.08 0.05 0.06 0.06 0.05 0.03 0.03 0.03 0.02 0.02 0.03 0.03 0.02 0.02 0.02 0.02 0.03 0.03
0.03 0.03 0.05 0.05 0.04 0.04 0.04 0.03 0.04 0.04 0.04 0.05 0.04 0.02 0.02 0.02 0.02 0.02 0.03 0.03 0.03 0.05 0.04 0.04 0.06 0.05 0.05 0.05 0.06 0.08 0.08 0.07 0.04 0.02 0.02 0.02 0.02 0.01 0.01 0.01 0.01 0.02 0.03
0.02 0.03 0.05 0.05 0.05 0.05 0.05 0.05 0.04 0.04 0.04 0.03 0.02 0.01 0.02 0.02 0.02 0.03 0.02 0.03 0.04 0.05 0.04 0.03 0.04 0.03 0.04 0.03 0.04 0.05 0.06 0.06 0.04 0.03 0.03 0.02 0.01 0.01 0.01 0.01 0.02 0.02 0.02
0.04 0.04 0.04 0.04 0.05 0.07 0.07 0.07 0.06 0.05 0.05 0.04 0.02 0.02 0.01 0.01 0.01 0.02 0.01 0.02 0.03 0.04 0.04 0.03 0.03 0.03 0.03 0.04 0.04 0.03 0.03 0.04 0.03 0.02 0.02 0.02 0.01 0.01 0.01 0.02 0.02 0.02 0.02
0.04 0.04 0.05 0.06 0.06 0.09 0.10 0.11 0.11 0.09 0.08 0.06 0.04 0.02 0.02 0.01 0.01 0.01 0.01 0.01 0.02 0.03 0.03 0.04 0.05 0.03 0.02 0.03 0.03 0.02 0.02 0.03 0.04 0.04 0.03 0.02 0.02 0.01 0.01 0.01 0.01 0.01 0.01
0.04 0.04 0.04 0.05 0.06 0.10 0.13 0.11 0.10 0.09 0.08 0.06 0.04 0.03 0.02 0.01 0.00 0.01 0.01 0.02 0.02 0.03 0.04 0.05 0.04 0.03 0.03 0.03 0.03 0.03 0.03 0.03 0.03 0.04 0.04 0.02 0.02 0.01 0.01 0.01 0.01 0.01 0.01
0.07 0.06 0.05 0.05 0.08 0.15 0.12 0.08 0.07 0.06 0.06 0.06 0.05 0.04 0.02 0.01 0.01 0.02 0.02 0.03 0.04 0.03 0.02 0.03 0.03 0.04 0.04 0.03 0.03 0.04 0.04 0.04 0.03 0.02 0.02 0.02 0.01 0.01 0.01 0.01 0.01 0.01 0.01
0.10 0.07 0.05 0.06 0.07 0.09 0.10 0.09 0.06 0.05 0.05 0.05 0.05 0.05 0.04 0.02 0.02 0.02 0.02 0.03 0.03 0.02 0.02 0.02 0.02 0.03 0.05 0.04 0.03 0.03 0.04 0.04 0.03 0.02 0.01 0.01 0.01 0.01 0.01 0.01 0.01 0.01 0.01
0.09 0.11 0.11 0.10 0.08 0.05 0.05 0.04 0.06 0.05 0.04 0.03 0.03 0.04 0.06 0.06 0.04 0.03 0.03 0.02 0.02 0.01 0.01 0.01 0.01 0.02 0.03 0.04 0.05 0.04 0.04 0.06 0.05 0.04 0.04 0.02 0.01 0.01 0.02 0.01 0.01 0.01 0.01
0.08 0.09 0.11 0.12 0.10 0.10 0.09 0.05 0.05 0.04 0.02 0.02 0.02 0.02 0.03 0.04 0.05 0.04 0.03 0.03 0.02 0.01 0.01 0.01 0.01 0.02 0.03 0.03 0.05 0.06 0.06 0.06 0.06 0.04 0.03 0.03 0.03 0.04 0.04 0.03 0.02 0.02 0.02
0.09 0.10 0.11 0.11 0.09 0.09 0.07 0.05 0.05 0.03 0.02 0.01 0.02 0.02 0.02 0.01 0.02 0.03 0.05 0.04 0.03 0.02 0.02 0.02 0.02 0.02 0.02 0.03 0.03 0.05 0.07 0.07 0.07 0.05 0.04 0.03 0.04 0.05 0.06 0.06 0.05 0.04 0.03
MSLP
1015.70 1015.86 1015.96 1016.06 1016.17 1016.33 1016.55 1016.81 1017.09 1017.38 1017.65 1017.89 1018.10 1018.29 1018.47 1018.65 1018.84 1019.05 1019.27 1019.49 1019.70 1019.87 1020.01 1020.11 1020.18 1020.21 1020.22 1020.21 1020.20 1020.18 1020.17 1020.16 1020.17 1020.19 1020.23 1020.29 1020.37 1020.45 1020.53 1020.59 1020.63 1020.64 1020.63
1015.47 1015.64 1015.77 1015.89 1016.03 1016.22 1016.46 1016.74 1017.05 1017.36 1017.65 1017.92 1018.15 1018.36 1018.55 1018.73 1018.90 1019.09 1019.27 1019.46 1019.64 1019.81 1019.96 1020.09 1020.20 1020.28 1020.34 1020.38 1020.39 1020.40 1020.40 1020.40 1020.41 1020.44 1020.51 1020.59 1020.69 1020.80 1020.89 1020.95 1020.97 1020.96 1020.91
1015.14 1015.34 1015.52 1015.69 1015.89 1016.12 1016.40 1016.71 1017.03 1017.35 1017.67 1017.95 1018.19 1018.41 1018.60 1018.78 1018.94 1019.09 1019.24 1019.39 1019.54 1019.69 1019.84 1019.99 1020.14 1020.27 1020.38 1020.47 1020.52 1020.56 1020.58 1020.59 1020.62 1020.66 1020.74 1020.84 1020.96 1021.08 1021.19 1021.26 1021.29 1021.26 1021.19
1014.72 1014.97 1015.21 1015.46 1015.72 1016.02 1016.33 1016.67 1017.01 1017.34 1017.65 1017.94 1018.20 1018.43 1018.62 1018.79 1018.94 1019.07 1019.18 1019.30 1019.42 1019.55 1019.69 1019.85 1020.02 1020.19 1020.35 1020.48 1020.59 1020.66 1020.71 1020.74 1020.78 1020.83 1020.91 1021.02 1021.15 1021.28 1021.40 1021.48 1021.51 1021.49 1021.42
1014.24 1014.55 1014.86 1015.18 1015.52 1015.87 1016.23 1016.60 1016.95 1017.28 1017.60 1017.89 1018.15 1018.39 1018.60 1018.78 1018.93 1019.05 1019.14 1019.23 1019.31 1019.41 1019.54 1019.69 1019.87 1020.07 1020.27 1020.45 1020.60 1020.71 1020.79 1020.85 1020.90 1020.95 1021.03 1021.14 1021.26 1021.39 1021.50 1021.58 1021.62 1021.61 1021.56
1013.75 1014.10 1014.47 1014.86 1015.27 1015.69 1016.09 1016.47 1016.84 1017.17 1017.49 1017.79 1018.07 1018.33 1018.57 1018.77 1018.94 1019.06 1019.15 1019.21 1019.26 1019.33 1019.43 1019.56 1019.74 1019.95 1020.17 1020.38 1020.57 1020.73 1020.84 1020.92 1020.99 1021.05 1021.12 1021.20 1021.31 1021.41 1021.51 1021.59 1021.63 1021.63 1021.59
1013.25 1013.64 1014.06 1014.52 1014.99 1015.45 1015.89 1016.30 1016.67 1017.02 1017.34 1017.66 1017.97 1018.26 1018.54 1018.79 1018.99 1019.13 1019.22 1019.27 1019.29 1019.32 1019.38 1019.48 1019.64 1019.84 1020.07 1020.30 1020.53 1020.72 1020.87 1020.98 1021.06 1021.12 1021.18 1021.24 1021.31 1021.39 1021.46 1021.52 1021.55 1021.55 1021.53
1012.79 1013.19 1013.65 1014.15 1014.66 1015.17 1015.65 1016.08 1016.47 1016.83 1017.17 1017.51 1017.86 1018.20 1018.53 1018.83 1019.07 1019.25 1019.35 1019.39 1019.40 1019.39 1019.41 1019.47 1019.58 1019.76 1019.98 1020.23 1020.47 1020.70 1020.88 1021.02 1021.12 1021.19 1021.24 1021.28 1021.32 1021.35 1021.39 1021.41 1021.42 1021.42 1021.40
1012.37 1012.76 1013.24 1013.76 1014.31 1014.85 1015.36 1015.82 1016.23 1016.62 1016.99 1017.36 1017.75 1018.14 1018.53 1018.88 1019.18 1019.39 1019.51 1019.56 1019.55 1019.51 1019.48 1019.49 1019.57 1019.71 1019.91 1020.15 1020.41 1020.65 1020.86 1021.03 1021.15 1021.23 1021.28 1021.31 1021.32 1021.32 1021.31 1021.30 1021.28 1021.26 1021.23
1011.97 1012.35 1012.82 1013.36 1013.93 1014.50 1015.03 1015.52 1015.97 1016.38 1016.78 1017.19 1017.62 1018.06 1018.50 1018.90 1019.24 1019.49 1019.64 1019.70 1019.68 1019.63 1019.57 1019.54 1019.57 1019.68 1019.85 1020.08 1020.33 1020.58 1020.81 1021.00 1021.14 1021.24 1021.29 1021.31 1021.31 1021.29 1021.25 1021.20 1021.15 1021.10 1021.05
1011.57 1011.93 1012.39 1012.93 1013.51 1014.10 1014.66 1015.18 1015.66 1016.11 1016.54 1016.98 1017.44 1017.92 1018.39 1018.83 1019.21 1019.49 1019.67 1019.75 1019.75 1019.69 1019.62 1019.57 1019.58 1019.65 1019.79 1019.99 1020.23 1020.48 1020.71 1020.91 1021.07 1021.18 1021.25 1021.28 1021.27 1021.24 1021.19 1021.12 1021.04 1020.96 1020.88
1011.15 1011.48 1011.93 1012.46 1013.05 1013.66 1014.24 1014.79 1015.30 1015.77 1016.24 1016.70 1017.18 1017.68 1018.17 1018.63 1019.03 1019.34 1019.56 1019.67 1019.70 1019.67 1019.61 1019.57 1019.57 1019.62 1019.74 1019.91 1020.12 1020.35 1020.57 1020.76 1020.93 1021.05 1021.13 1021.18 1021.19 1021.17 1021.12 1021.05 1020.96 1020.86 1020.75
1010.69 1011.00 1011.43 1011.96 1012.55 1013.17 1013.78 1014.35 1014.88 1015.38 1015.86 1016.34 1016.82 1017.31 1017.80 1018.27 1018.69 1019.03 1019.28 1019.44 1019.52 1019.55 1019.54 1019.53 1019.54 1019.60 1019.70 1019.84 1020.02 1020.21 1020.39 1020.57 1020.72 1020.85 1020.94 1021.01 1021.05 1021.06 1021.03 1020.98 1020.90 1020.79 1020.67
1010.19 1010.48 1010.90 1011.43 1012.03 1012.65 1013.27 1013.87 1014.42 1014.94 1015.42 1015.90 1016.37 1016.85 1017.33 1017.79 1018.21 1018.57 1018.87 1019.09 1019.25 1019.35 1019.42 1019.47 1019.52 1019.60 1019.69 1019.81 1019.94 1020.08 1020.22 1020.35 1020.47 1020.59 1020.69 1020.78 1020.85 1020.90 1020.92 1020.90 1020.85 1020.76 1020.64
1009.64 1009.94 1010.36 1010.89 1011.49 1012.13 1012.76 1013.37 1013.94 1014.47 1014.95 1015.42 1015.88 1016.33 1016.79 1017.23 1017.65 1018.04 1018.38 1018.68 1018.92 1019.11 1019.27 1019.40 1019.52 1019.63 1019.72 1019.82 1019.91 1019.99 1020.06 1020.14 1020.22 1020.30 1020.40 1020.50 1020.60 1020.70 1020.77 1020.81 1020.81 1020.76 1020.66
1009.07 1009.38 1009.82 1010.36 1010.97 1011.62 1012.27 1012.89 1013.47 1014.01 1014.50 1014.95 1015.39 1015.83 1016.25 1016.68 1017.10 1017.51 1017.90 1018.26 1018.58 1018.87 1019.13 1019.35 1019.54 1019.69 1019.80 1019.87 1019.92 1019.94 1019.95 1019.96 1019.98 1020.03 1020.11 1020.21 1020.34 1020.47 1020.59 1020.69 1020.75 1020.75 1020.70
1008.47 1008.83 1009.29 1009.86 1010.48 1011.15 1011.81 1012.45 1013.05 1013.59 1014.09 1014.54 1014.97 1015.38 1015.79 1016.20 1016.62 1017.05 1017.47 1017.88 1018.29 1018.67 1019.01 1019.31 1019.57 1019.76 1019.89 1019.96 1019.97 1019.95 1019.90 1019.84 1019.80 1019.80 1019.85 1019.94 1020.07 1020.23 1020.39 1020.54 1020.65 1020.71 1020.71
1007.83 1008.25 1008.77 1009.37 1010.03 1010.71 1011.39 1012.05 1012.67 1013.23 1013.73 1014.19 1014.62 1015.03 1015.43 1015.83 1016.25 1016.68 1017.13 1017.59 1018.04 1018.48 1018.90 1019.27 1019.58 1019.81 1019.97 1020.04 1020.04 1019.98 1019.88 1019.78 1019.69 1019.64 1019.64 1019.71 1019.83 1019.99 1020.17 1020.34 1020.49 1020.60 1020.65
1007.16 1007.66 1008.23 1008.88 1009.57 1010.28 1010.99 1011.66 1012.30 1012.87 1013.40 1013.88 1014.32 1014.73 1015.14 1015.55 1015.97 1016.40 1016.86 1017.34 1017.82 1018.30 1018.76 1019.17 1019.53 1019.80 1019.98 1020.07 1020.07 1020.01 1019.89 1019.75 1019.63 1019.54 1019.51 1019.53 1019.62 1019.76 1019.92 1020.10 1020.27 1020.40 1020.49
1006.43 1007.01 1007.66 1008.36 1009.09 1009.82 1010.55 1011.24 1011.89 1012.49 1013.04 1013.55 1014.01 1014.45 1014.87 1015.29 1015.72 1016.16 1016.62 1017.10 1017.59 1018.08 1018.56 1019.00 1019.38 1019.69 1019.90 1020.02 1020.05 1020.00 1019.89 1019.75 1019.61 1019.50 1019.43 1019.41 1019.45 1019.54 1019.67 1019.82 1019.97 1020.10 1020.21
1005.63 1006.30 1007.02 1007.77 1008.54 1009.29 1010.03 1010.74 1011.40 1012.02 1012.59 1013.13 1013.63 1014.10 1014.56 1015.00 1015.44 1015.89 1016.35 1016.82 1017.31 1017.79 1018.27 1018.71 1019.12 1019.45 1019.71 1019.87 1019.95 1019.94 1019.87 1019.75 1019.62 1019.50 1019.40 1019.34 1019.32 1019.35 1019.42 1019.52 1019.63 1019.73 1019.83
1004.80 1005.54 1006.31 1007.11 1007.89 1008.66 1009.40 1010.11 1010.78 1011.41 1012.01 1012.58 1013.11 1013.63 1014.13 1014.61 1015.07 1015.54 1016.00 1016.47 1016.94 1017.41 1017.88 1018.32 1018.74 1019.10 1019.40 1019.62 1019.76 1019.81 1019.80 1019.73 1019.63 1019.51 1019.40 1019.30 1019.23 1019.20 1019.20 1019.23 1019.27 1019.34 1019.40
1003.95 1004.74 1005.56 1006.37 1007.17 1007.94 1008.67 1009.36 1010.03 1010.66 1011.27 1011.87 1012.45 1013.01 1013.56 1014.08 1014.59 1015.08 1015.56 1016.02 1016.49 1016.95 1017.40 1017.85 1018.27 1018.66 1019.00 1019.28 1019.49 1019.62 1019.68 1019.67 1019.61 1019.52 1019.40 1019.28 1019.18 1019.08 1019.01 1018.97 1018.95 1018.96 1018.99
1003.13 1003.95 1004.79 1005.61 1006.40 1007.15 1007.86 1008.53 1009.17 1009.80 1010.42 1011.04 1011.66 1012.27 1012.87 1013.45 1014.00 1014.53 1015.03 1015.51 1015.98 1016.44 1016.89 1017.33 1017.76 1018.18 1018.55 1018.89 1019.16 1019.36 1019.49 1019.55 1019.55 1019.49 1019.39 1019.26 1019.13 1018.99 1018.87 1018.77 1018.70 1018.66 1018.66
1002.40 1003.22 1004.05 1004.86 1005.63 1006.35 1007.03 1007.67 1008.29 1008.91 1009.53 1010.16 1010.81 1011.47 1012.12 1012.75 1013.37 1013.94 1014.48 1014.99 1015.47 1015.93 1016.38 1016.82 1017.26 1017.68 1018.09 1018.46 1018.78 1019.04 1019.24 1019.36 1019.41 1019.39 1019.31 1019.20 1019.06 1018.91 1018.76 1018.63 1018.53 1018.46 1018.42
1001.79 1002.58 1003.39 1004.17 1004.91 1005.60 1006.25 1006.86 1007.45 1008.05 1008.67 1009.32 1009.99 1010.68 1011.38 1012.07 1012.73 1013.36 1013.94 1014.48 1014.98 1015.45 1015.90 1016.35 1016.78 1017.21 1017.63 1018.02 1018.37 1018.67 1018.91 1019.07 1019.17 1019.19 1019.15 1019.06 1018.94 1018.80 1018.66 1018.53 1018.42 1018.34 1018.29
Thickness
5754 5753 5753 5752 5751 5750 5748 5747 5746 5746 5745 5745 5744 5743 5743 5742 5741 5741 5741 5741 5741 5740 5739 5738 5736 5735 5733 5732 5731 5730 5728 5727 5726 5725 5724 5723 5723 5721 5720 5718 5717 5716 5714
5752 5751 5751 5750 5749 5748 5747 5745 5744 5743 5742 5741 5741 5741 5741 5740 5740 5739 5739 5739 5739 5737 5737 5736 5735 5733 5731 5730 5728 5727 5726 5725 5724 5723 5722 5721 5720 5719 5718 5717 5715 5714 5713
5752 5750 5749 5747 5747 5746 5745 5743 5742 5741 5739 5738 5737 5737 5738 5738 5737 5737 5737 5737 5736 5735 5735 5734 5733 5731 5729 5728 5727 5726 5724 5723 5722 5720 5720 5719 5719 5718 5716 5715 5714 5712 5711
5750 5748 5746 5745 5745 5744 5742 5740 5738 5737 5735 5734 5733 5734 5734 5734 5734 5734 5734 5734 5733 5733 5732 5731 5730 5729 5728 5727 5725 5724 5722 5721 5720 5718 5717 5717 5716 5716 5714 5713 5711 5710 5709
5748 5746 5744 5743 5742 5741 5739 5738 5735 5734 5731 5730 5730 5730 5731 5730 5731 5731 5730 5731 5731 5730 5730 5729 5728 5727 5725 5724 5723 5722 5720 5718 5717 5716 5714 5714 5713 5712 5711 5710 5709 5708 5706
5746 5744 5743 5741 5740 5738 5735 5734 5732 5730 5729 5728 5728 5727 5727 5728 5728 5728 5728 5728 5728 5728 5727 5726 5725 5724 5722 5722 5720 5720 5718 5716 5715 5713 5712 5711 5710 5709 5709 5707 5706 5705 5703
5743 5742 5740 5738 5737 5735 5733 5731 5729 5726 5725 5725 5722 5720 5722 5724 5725 5726 5726 5726 5725 5724 5724 5723 5722 5720 5719 5719 5718 5717 5716 5714 5712 5710 5709 5708 5707 5706 5705 5704 5703 5701 5700
5741 5740 5738 5736 5735 5732 5730 5728 5726 5723 5722 5723 5718 5713 5710 5713 5719 5723 5722 5722 5721 5721 5720 5719 5718 5717 5716 5716 5715 5714 5712 5711 5709 5708 5706 5705 5704 5703 5702 5701 5700 5699 5697
5740 5738 5736 5734 5733 5731 5728 5726 5725 5722 5718 5719 5719 5714 5707 5705 5709 5714 5717 5718 5717 5716 5716 5716 5715 5714 5714 5712 5711 5710 5710 5708 5707 5705 5704 5703 5702 5701 5699 5698 5697 5696 5694
5737 5736 5734 5732 5730 5729 5726 5725 5724 5722 5719 5715 5716 5717 5715 5712 5705 5704 5709 5712 5713 5712 5712 5712 5711 5711 5710 5710 5708 5707 5707 5706 5704 5703 5702 5701 5700 5699 5697 5695 5694 5692 5691
5735 5733 5731 5730 5728 5726 5725 5723 5722 5721 5719 5716 5714 5713 5712 5711 5708 5702 5700 5704 5706 5708 5708 5708 5708 5707 5707 5706 5705 5704 5704 5703 5702 5700 5700 5699 5698 5697 5694 5692 5691 5690 5689
5731 5730 5729 5728 5726 5724 5723 5722 5721 5720 5718 5716 5715 5713 5711 5707 5705 5702 5699 5699 5699 5702 5704 5704 5703 5703 5703 5703 5702 5702 5701 5699 5698 5697 5696 5696 5695 5693 5691 5689 5687 5686 5685
5727 5727 5727 5725 5723 5722 5721 5720 5719 5717 5716 5715 5713 5712 5711 5710 5708 5705 5701 5698 5697 5698 5699 5699 5700 5700 5700 5699 5698 5698 5697 5696 5694 5693 5692 5692 5690 5689 5686 5684 5683 5682 5681
5726 5726 5724 5723 5721 5720 5719 5718 5716 5715 5714 5713 5712 5711 5710 5709 5708 5706 5702 5698 5693 5692 5693 5693 5696 5696 5696 5696 5695 5694 5693 5692 5691 5690 5688 5687 5685 5684 5682 5680 5678 5678 5677
5726 5724 5722 5720 5719 5717 5716 5715 5713 5711 5711 5710 5709 5708 5708 5707 5707 5705 5703 5701 5694 5688 5687 5689 5690 5693 5693 5693 5692 5691 5690 5688 5687 5685 5684 5682 5680 5679 5677 5676 5674 5674 5673
5723 5721 5719 5717 5716 5714 5713 5712 5710 5709 5707 5706 5706 5705 5705 5704 5703 5703 5701 5699 5697 5692 5687 5688 5689 5690 5690 5690 5688 5687 5686 5685 5683 5682 5680 5678 5676 5675 5674 5672 5671 5669 5668
5719 5717 5716 5714 5712 5711 5710 5708 5707 5706 5704 5703 5703 5702 5701 5701 5700 5699 5698 5696 5695 5692 5686 5686 5687 5687 5686 5685 5684 5683 5682 5680 5679 5677 5676 5675 5673 5672 5671 5669 5667 5666 5664
5716 5715 5713 5711 5709 5707 5706 5705 5704 5703 5701 5700 5699 5698 5697 5697 5695 5694 5693 5692 5691 5690 5686 5682 5682 5682 5682 5681 5680 5679 5678 5676 5675 5674 5672 5671 5670 5668 5666 5665 5663 5662 5660
5712 5711 5709 5707 5705 5704 5703 5702 5700 5699 5697 5696 5695 5694 5692 5692 5690 5689 5688 5687 5686 5686 5683 5680 5677 5677 5676 5676 5675 5674 5673 5671 5671 5670 5669 5667 5666 5664 5663 5661 5659 5657 5656
5709 5707 5706 5704 5702 5700 5699 5698 5696 5694 5692 5691 5691 5690 5689 5687 5685 5684 5683 5682 5681 5679 5677 5674 5672 5670 5670 5671 5669 5667 5665 5665 5665 5666 5665 5663 5662 5660 5659 5657 5656 5654 5652
5706 5703 5701 5700 5698 5696 5695 5693 5692 5690 5687 5686 5686 5685 5685 5684 5683 5681 5680 5677 5676 5673 5670 5668 5665 5664 5663 5663 5662 5662 5660 5659 5659 5660 5659 5658 5657 5655 5655 5653 5652 5650 5648
5700 5699 5697 5695 5693 5693 5691 5690 5689 5686 5684 5682 5681 5680 5680 5679 5678 5677 5677 5675 5673 5670 5666 5663 5660 5659 5658 5658 5658 5657 5655 5653 5652 5654 5652 5652 5652 5651 5651 5650 5649 5647 5645
5695 5693 5691 5690 5688 5688 5687 5686 5685 5683 5680 5678 5676 5675 5676 5675 5674 5672 5671 5670 5669 5668 5667 5663 5659 5657 5656 5656 5655 5653 5651 5649 5648 5649 5648 5646 5647 5646 5647 5647 5645 5644 5642
5689 5687 5685 5684 5683 5682 5682 5681 5680 5678 5675 5673 5672 5671 5669 5668 5669 5667 5665 5663 5662 5662 5662 5660 5659 5657 5656 5655 5653 5651 5649 5647 5646 5646 5645 5641 5642 5642 5644 5643 5642 5640 5638
5685 5683 5681 5679 5678 5677 5676 5676 5674 5672 5669 5668 5667 5666 5665 5663 5664 5663 5660 5657 5656 5656 5658 5657 5656 5655 5653 5652 5650 5647 5644 5641 5639 5640 5641 5638 5637 5637 5637 5638 5637 5636 5634
5681 5679 5677 5676 5674 5673 5672 5671 5670 5667 5664 5662 5661 5661 5660 5659 5658 5657 5655 5653 5651 5650 5651 5651 5650 5649 5648 5647 5646 5644 5641 5637 5634 5634 5637 5634 5633 5631 5630 5632 5632 5631 5629